Time,TemperatureF,DewpointF,PressureIn,WindDirection,WindDirectionDegrees,WindSpeedMPH,WindSpeedGustMPH,Humidity,HourlyPrecipIn,Conditions,Clouds,dailyrainin,SoftwareType,DateUTC
2013-02-15 00:01:00,39.8,24.0,30.15,NNE,15,2.0,2.0,53,0.00,,,0.00,Wunderground v.1.15,2013-02-15 07:01:00,
2013-02-15 00:06:00,39.8,24.0,30.15,NNE,13,0.0,2.0,53,0.00,,,0.00,Wunderground v.1.15,2013-02-15 07:06:00,
2013-02-15 00:12:00,39.8,24.0,30.15,NNW,335,0.0,1.0,53,0.00,,,0.00,Wunderground v.1.15,2013-02-15 07:12:00,
2013-02-15 00:17:00,39.7,23.5,30.15,NNE,12,0.0,1.0,52,0.00,,,0.00,Wunderground v.1.15,2013-02-15 07:17:00,
2013-02-15 00:23:00,39.7,23.5,30.15,NNW,347,0.0,0.0,52,0.00,,,0.00,Wunderground v.1.15,2013-02-15 07:23:00,
2013-02-15 00:28:00,39.7,23.5,30.16,NNW,335,0.0,0.0,52,0.00,,,0.00,Wunderground v.1.15,2013-02-15 07:28:00,
2013-02-15 00:34:00,39.9,23.2,30.15,North,349,0.0,0.0,51,0.00,,,0.00,Wunderground v.1.15,2013-02-15 07:34:00,
2013-02-15 00:39:00,39.9,23.2,30.16,NNW,346,0.0,0.0,51,0.00,,,0.00,Wunderground v.1.15,2013-02-15 07:39:00,
2013-02-15 00:45:00,39.5,22.8,30.16,North,1,0.0,0.0,51,0.00,,,0.00,Wunderground v.1.15,2013-02-15 07:45:00,
2013-02-15 00:50:00,39.0,23.3,30.16,North,6,2.0,2.0,53,0.00,,,0.00,Wunderground v.1.15,2013-02-15 07:50:00,
2013-02-15 00:55:00,38.4,23.2,30.16,North,357,0.0,2.0,54,0.00,,,0.00,Wunderground v.1.15,2013-02-15 07:55:00,
2013-02-15 01:00:00,38.1,23.3,30.16,North,356,0.0,1.0,55,0.00,,,0.00,Wunderground v.1.15,2013-02-15 08:00:00,
2013-02-15 01:06:00,38.0,23.3,30.16,ENE,77,0.0,1.0,55,0.00,,,0.00,Wunderground v.1.15,2013-02-15 08:06:00,
2013-02-15 01:12:00,37.4,23.5,30.16,ESE,112,0.0,0.0,57,0.00,,,0.00,Wunderground v.1.15,2013-02-15 08:12:00,
2013-02-15 01:17:00,37.2,24.2,30.16,ESE,103,0.0,3.0,59,0.00,,,0.00,Wunderground v.1.15,2013-02-15 08:17:00,
2013-02-15 01:22:00,36.9,24.3,30.17,East,100,0.0,1.0,60,0.00,,,0.00,Wunderground v.1.15,2013-02-15 08:22:00,
2013-02-15 01:28:00,36.0,23.8,30.17,SE,131,0.0,1.0,61,0.00,,,0.00,Wunderground v.1.15,2013-02-15 08:28:00,
2013-02-15 01:33:00,36.1,23.9,30.17,East,98,0.0,0.0,61,0.00,,,0.00,Wunderground v.1.15,2013-02-15 08:33:00,
2013-02-15 01:39:00,35.7,23.9,30.17,East,93,0.0,0.0,62,0.00,,,0.00,Wunderground v.1.15,2013-02-15 08:39:00,
2013-02-15 01:44:00,35.4,24.4,30.17,East,82,0.0,0.0,64,0.00,,,0.00,Wunderground v.1.15,2013-02-15 08:44:00,
2013-02-15 01:50:00,34.1,23.9,30.17,ENE,77,0.0,0.0,66,0.00,,,0.00,Wunderground v.1.15,2013-02-15 08:50:00,
2013-02-15 01:55:00,34.3,24.8,30.17,ESE,108,1.0,2.0,68,0.00,,,0.00,Wunderground v.1.15,2013-02-15 08:55:00,
2013-02-15 02:00:00,35.4,25.2,30.17,East,94,0.0,1.0,66,0.00,,,0.00,Wunderground v.1.15,2013-02-15 09:00:00,
2013-02-15 02:05:00,35.7,25.1,30.16,ESE,114,2.0,4.0,65,0.00,,,0.00,Wunderground v.1.15,2013-02-15 09:05:00,
2013-02-15 02:10:00,35.9,24.9,30.17,East,93,2.0,3.0,64,0.00,,,0.00,Wunderground v.1.15,2013-02-15 09:10:00,
2013-02-15 02:15:00,36.2,25.2,30.17,SE,129,2.0,3.0,64,0.00,,,0.00,Wunderground v.1.15,2013-02-15 09:15:00,
2013-02-15 02:20:00,35.8,24.8,30.17,ESE,120,2.0,3.0,64,0.00,,,0.00,Wunderground v.1.15,2013-02-15 09:20:00,
2013-02-15 02:25:00,35.8,24.8,30.16,SE,128,2.0,3.0,64,0.00,,,0.00,Wunderground v.1.15,2013-02-15 09:25:00,
2013-02-15 02:30:00,35.5,24.9,30.16,SE,136,2.0,2.0,65,0.00,,,0.00,Wunderground v.1.15,2013-02-15 09:30:00,
2013-02-15 02:35:00,35.6,25.0,30.17,ESE,110,1.0,4.0,65,0.00,,,0.00,Wunderground v.1.15,2013-02-15 09:35:00,
2013-02-15 02:40:00,36.0,24.6,30.17,SE,135,2.0,2.0,63,0.00,,,0.00,Wunderground v.1.15,2013-02-15 09:40:00,
2013-02-15 02:45:00,36.8,25.0,30.16,SE,126,0.0,6.0,62,0.00,,,0.00,Wunderground v.1.15,2013-02-15 09:45:00,
2013-02-15 02:50:00,36.9,24.7,30.16,ESE,115,2.0,2.0,61,0.00,,,0.00,Wunderground v.1.15,2013-02-15 09:50:00,
2013-02-15 02:55:00,37.0,24.8,30.16,SE,146,3.0,4.0,61,0.00,,,0.00,Wunderground v.1.15,2013-02-15 09:55:00,
2013-02-15 03:00:00,37.1,24.9,30.16,ESE,118,2.0,3.0,61,0.00,,,0.00,Wunderground v.1.15,2013-02-15 10:00:00,
2013-02-15 03:05:00,37.3,24.7,30.16,SE,124,1.0,4.0,60,0.00,,,0.00,Wunderground v.1.15,2013-02-15 10:05:00,
2013-02-15 03:10:00,37.1,24.5,30.16,ESE,108,0.0,1.0,60,0.00,,,0.00,Wunderground v.1.15,2013-02-15 10:10:00,
2013-02-15 03:15:00,36.5,24.3,30.16,East,95,0.0,1.0,61,0.00,,,0.00,Wunderground v.1.15,2013-02-15 10:15:00,
2013-02-15 03:20:00,36.4,24.6,30.17,East,80,0.0,0.0,62,0.00,,,0.00,Wunderground v.1.15,2013-02-15 10:20:00,
2013-02-15 03:25:00,35.7,24.3,30.16,NE,41,2.0,3.0,63,0.00,,,0.00,Wunderground v.1.15,2013-02-15 10:25:00,
2013-02-15 03:30:00,34.7,24.1,30.16,NE,38,0.0,0.0,65,0.00,,,0.00,Wunderground v.1.15,2013-02-15 10:30:00,
2013-02-15 03:35:00,34.8,24.6,30.15,East,87,0.0,0.0,66,0.00,,,0.00,Wunderground v.1.15,2013-02-15 10:35:00,
2013-02-15 03:40:00,34.7,24.5,30.16,East,87,0.0,0.0,66,0.00,,,0.00,Wunderground v.1.15,2013-02-15 10:40:00,
2013-02-15 03:45:00,34.4,24.2,30.16,East,87,0.0,0.0,66,0.00,,,0.00,Wunderground v.1.15,2013-02-15 10:45:00,
2013-02-15 03:50:00,35.2,24.6,30.15,East,86,0.0,0.0,65,0.00,,,0.00,Wunderground v.1.15,2013-02-15 10:50:00,
2013-02-15 03:55:00,34.1,23.9,30.15,East,82,0.0,0.0,66,0.00,,,0.00,Wunderground v.1.15,2013-02-15 10:55:00,
2013-02-15 04:00:00,33.5,24.4,30.14,ENE,78,0.0,0.0,69,0.00,,,0.00,Wunderground v.1.15,2013-02-15 11:00:00,
2013-02-15 04:05:00,33.1,24.7,30.15,East,86,2.0,2.0,71,0.00,,,0.00,Wunderground v.1.15,2013-02-15 11:05:00,
2013-02-15 04:10:00,33.1,24.7,30.15,ENE,73,2.0,2.0,71,0.00,,,0.00,Wunderground v.1.15,2013-02-15 11:10:00,
2013-02-15 04:15:00,32.4,24.4,30.14,ENE,70,0.0,2.0,72,0.00,,,0.00,Wunderground v.1.15,2013-02-15 11:15:00,
2013-02-15 04:20:00,32.3,24.3,30.15,ENE,68,0.0,1.0,72,0.00,,,0.00,Wunderground v.1.15,2013-02-15 11:20:00,
2013-02-15 04:25:00,32.4,24.4,30.15,ENE,59,0.0,1.0,72,0.00,,,0.00,Wunderground v.1.15,2013-02-15 11:25:00,
2013-02-15 04:30:00,32.4,24.4,30.15,ENE,58,0.0,0.0,72,0.00,,,0.00,Wunderground v.1.15,2013-02-15 11:30:00,
2013-02-15 04:35:00,32.4,24.4,30.15,NE,36,0.0,0.0,72,0.00,,,0.00,Wunderground v.1.15,2013-02-15 11:35:00,
2013-02-15 04:40:00,32.5,24.1,30.15,ENE,65,0.0,0.0,71,0.00,,,0.00,Wunderground v.1.15,2013-02-15 11:40:00,
2013-02-15 04:45:00,32.2,23.8,30.16,ENE,62,0.0,0.0,71,0.00,,,0.00,Wunderground v.1.15,2013-02-15 11:45:00,
2013-02-15 04:50:00,32.0,24.3,30.15,ENE,76,0.0,0.0,73,0.00,,,0.00,Wunderground v.1.15,2013-02-15 11:50:00,
2013-02-15 04:55:00,31.9,24.2,30.16,ENE,73,0.0,0.0,73,0.00,,,0.00,Wunderground v.1.15,2013-02-15 11:55:00,
2013-02-15 05:00:00,31.9,24.2,30.16,ENE,70,0.0,0.0,73,0.00,,,0.00,Wunderground v.1.15,2013-02-15 12:00:00,
2013-02-15 05:05:00,31.8,24.1,30.17,ENE,65,0.0,0.0,73,0.00,,,0.00,Wunderground v.1.15,2013-02-15 12:05:00,
2013-02-15 05:10:00,31.8,24.1,30.16,ENE,72,0.0,0.0,73,0.00,,,0.00,Wunderground v.1.15,2013-02-15 12:10:00,
2013-02-15 05:15:00,32.1,24.4,30.16,ENE,75,0.0,0.0,73,0.00,,,0.00,Wunderground v.1.15,2013-02-15 12:15:00,
2013-02-15 05:20:00,31.9,24.2,30.17,ENE,67,0.0,0.0,73,0.00,,,0.00,Wunderground v.1.15,2013-02-15 12:20:00,
2013-02-15 05:25:00,31.8,24.5,30.17,East,86,0.0,0.0,74,0.00,,,0.00,Wunderground v.1.15,2013-02-15 12:25:00,
2013-02-15 05:30:00,32.3,24.9,30.17,ENE,76,0.0,0.0,74,0.00,,,0.00,Wunderground v.1.15,2013-02-15 12:30:00,
2013-02-15 05:35:00,32.5,24.8,30.17,ENE,68,0.0,0.0,73,0.00,,,0.00,Wunderground v.1.15,2013-02-15 12:35:00,
2013-02-15 05:40:00,32.2,24.8,30.17,ENE,60,0.0,0.0,74,0.00,,,0.00,Wunderground v.1.15,2013-02-15 12:40:00,
2013-02-15 05:45:00,32.1,24.7,30.18,NE,37,0.0,0.0,74,0.00,,,0.00,Wunderground v.1.15,2013-02-15 12:45:00,
2013-02-15 05:50:00,32.8,25.1,30.18,ENE,75,0.0,0.0,73,0.00,,,0.00,Wunderground v.1.15,2013-02-15 12:50:00,
2013-02-15 05:55:00,33.6,24.9,30.18,ENE,73,0.0,0.0,70,0.00,,,0.00,Wunderground v.1.15,2013-02-15 12:55:00,
2013-02-15 06:00:00,33.7,25.3,30.18,ENE,77,0.0,0.0,71,0.00,,,0.00,Wunderground v.1.15,2013-02-15 13:00:00,
2013-02-15 06:05:00,33.5,25.1,30.18,ENE,76,0.0,0.0,71,0.00,,,0.00,Wunderground v.1.15,2013-02-15 13:05:00,
2013-02-15 06:10:00,33.3,24.9,30.18,ENE,72,0.0,0.0,71,0.00,,,0.00,Wunderground v.1.15,2013-02-15 13:10:00,
2013-02-15 06:15:00,33.2,25.5,30.18,ENE,70,0.0,0.0,73,0.00,,,0.00,Wunderground v.1.15,2013-02-15 13:15:00,
2013-02-15 06:20:00,33.3,25.6,30.19,East,79,0.0,0.0,73,0.00,,,0.00,Wunderground v.1.15,2013-02-15 13:20:00,
2013-02-15 06:25:00,33.7,25.6,30.19,East,79,0.0,0.0,72,0.00,,,0.00,Wunderground v.1.15,2013-02-15 13:25:00,
2013-02-15 06:30:00,33.9,25.5,30.19,East,98,0.0,0.0,71,0.00,,,0.00,Wunderground v.1.15,2013-02-15 13:30:00,
2013-02-15 06:35:00,35.7,25.8,30.19,SE,125,0.0,0.0,67,0.00,,,0.00,Wunderground v.1.15,2013-02-15 13:35:00,
2013-02-15 06:40:00,35.7,25.8,30.19,East,79,0.0,0.0,67,0.00,,,0.00,Wunderground v.1.15,2013-02-15 13:40:00,
2013-02-15 06:45:00,34.8,25.7,30.20,ESE,104,0.0,0.0,69,0.00,,,0.00,Wunderground v.1.15,2013-02-15 13:45:00,
2013-02-15 06:50:00,36.3,26.0,30.19,East,84,0.0,0.0,66,0.00,,,0.00,Wunderground v.1.15,2013-02-15 13:50:00,
2013-02-15 06:55:00,35.9,25.6,30.20,East,89,0.0,0.0,66,0.00,,,0.00,Wunderground v.1.15,2013-02-15 13:55:00,
2013-02-15 07:00:00,36.5,25.5,30.20,East,91,0.0,0.0,64,0.00,,,0.00,Wunderground v.1.15,2013-02-15 14:00:00,
2013-02-15 07:05:00,36.3,25.3,30.19,East,83,0.0,0.0,64,0.00,,,0.00,Wunderground v.1.15,2013-02-15 14:05:00,
2013-02-15 07:10:00,36.1,25.5,30.19,East,82,0.0,0.0,65,0.00,,,0.00,Wunderground v.1.15,2013-02-15 14:10:00,
2013-02-15 07:15:00,35.3,25.1,30.20,ENE,64,0.0,0.0,66,0.00,,,0.00,Wunderground v.1.15,2013-02-15 14:15:00,
2013-02-15 07:20:00,34.8,25.3,30.20,ENE,63,0.0,0.0,68,0.00,,,0.00,Wunderground v.1.15,2013-02-15 14:20:00,
2013-02-15 07:25:00,34.8,25.3,30.20,ENE,63,0.0,0.0,68,0.00,,,0.00,Wunderground v.1.15,2013-02-15 14:25:00,
2013-02-15 07:30:00,34.9,25.4,30.21,ENE,64,0.0,0.0,68,0.00,,,0.00,Wunderground v.1.15,2013-02-15 14:30:00,
2013-02-15 07:35:00,34.7,25.6,30.21,ENE,63,0.0,0.0,69,0.00,,,0.00,Wunderground v.1.15,2013-02-15 14:35:00,
2013-02-15 07:40:00,34.7,25.6,30.21,ENE,64,0.0,0.0,69,0.00,,,0.00,Wunderground v.1.15,2013-02-15 14:40:00,
2013-02-15 07:45:00,35.1,25.6,30.21,ENE,63,0.0,0.0,68,0.00,,,0.00,Wunderground v.1.15,2013-02-15 14:45:00,
2013-02-15 07:50:00,36.1,25.8,30.21,ENE,63,0.0,0.0,66,0.00,,,0.00,Wunderground v.1.15,2013-02-15 14:50:00,
2013-02-15 07:55:00,37.2,26.1,30.21,ENE,64,0.0,0.0,64,0.00,,,0.00,Wunderground v.1.15,2013-02-15 14:55:00,
2013-02-15 08:00:00,37.4,27.4,30.21,ENE,65,0.0,0.0,67,0.00,,,0.00,Wunderground v.1.15,2013-02-15 15:00:00,
2013-02-15 08:05:00,37.7,27.7,30.22,ENE,64,0.0,0.0,67,0.00,,,0.00,Wunderground v.1.15,2013-02-15 15:05:00,
2013-02-15 08:10:00,37.9,27.5,30.22,ENE,64,0.0,0.0,66,0.00,,,0.00,Wunderground v.1.15,2013-02-15 15:10:00,
2013-02-15 08:15:00,38.8,27.3,30.22,ENE,64,0.0,0.0,63,0.00,,,0.00,Wunderground v.1.15,2013-02-15 15:15:00,
2013-02-15 08:20:00,39.7,28.1,30.22,ENE,64,0.0,0.0,63,0.00,,,0.00,Wunderground v.1.15,2013-02-15 15:20:00,
2013-02-15 08:25:00,40.6,27.8,30.23,SW,219,0.0,0.0,60,0.00,,,0.00,Wunderground v.1.15,2013-02-15 15:25:00,
2013-02-15 08:30:00,41.3,27.6,30.23,SW,235,0.0,0.0,58,0.00,,,0.00,Wunderground v.1.15,2013-02-15 15:30:00,
2013-02-15 08:35:00,42.0,27.0,30.23,WSW,242,0.0,0.0,55,0.00,,,0.00,Wunderground v.1.15,2013-02-15 15:35:00,
2013-02-15 08:40:00,42.5,27.0,30.23,SW,231,0.0,0.0,54,0.00,,,0.00,Wunderground v.1.15,2013-02-15 15:40:00,
2013-02-15 08:45:00,42.9,26.9,30.24,SW,227,0.0,0.0,53,0.00,,,0.00,Wunderground v.1.15,2013-02-15 15:45:00,
2013-02-15 08:50:00,43.6,27.1,30.24,West,264,0.0,0.0,52,0.00,,,0.00,Wunderground v.1.15,2013-02-15 15:50:00,
2013-02-15 08:55:00,44.1,26.6,30.24,West,266,0.0,0.0,50,0.00,,,0.00,Wunderground v.1.15,2013-02-15 15:55:00,
2013-02-15 09:00:00,44.5,26.5,30.24,WNW,286,0.0,0.0,49,0.00,,,0.00,Wunderground v.1.15,2013-02-15 16:00:00,
2013-02-15 09:05:00,44.8,26.3,30.24,WNW,284,2.0,2.0,48,0.00,,,0.00,Wunderground v.1.15,2013-02-15 16:05:00,
2013-02-15 09:10:00,44.9,26.4,30.24,NW,325,0.0,0.0,48,0.00,,,0.00,Wunderground v.1.15,2013-02-15 16:10:00,
2013-02-15 09:15:00,45.2,26.1,30.24,West,269,0.0,0.0,47,0.00,,,0.00,Wunderground v.1.15,2013-02-15 16:15:00,
2013-02-15 09:20:00,45.7,26.1,30.24,NW,321,0.0,0.0,46,0.00,,,0.00,Wunderground v.1.15,2013-02-15 16:20:00,
2013-02-15 09:25:00,46.2,26.0,30.24,West,262,1.0,3.0,45,0.00,,,0.00,Wunderground v.1.15,2013-02-15 16:25:00,
2013-02-15 09:30:00,46.5,25.7,30.24,WNW,284,0.0,1.0,44,0.00,,,0.00,Wunderground v.1.15,2013-02-15 16:30:00,
2013-02-15 09:35:00,47.0,25.1,30.24,West,275,0.0,1.0,42,0.00,,,0.00,Wunderground v.1.15,2013-02-15 16:35:00,
2013-02-15 09:40:00,47.4,24.3,30.24,West,262,0.0,1.0,40,0.00,,,0.00,Wunderground v.1.15,2013-02-15 16:40:00,
2013-02-15 09:45:00,48.0,24.8,30.24,WNW,285,0.0,1.0,40,0.00,,,0.00,Wunderground v.1.15,2013-02-15 16:45:00,
2013-02-15 09:50:00,48.5,24.6,30.24,NNW,327,2.0,3.0,39,0.00,,,0.00,Wunderground v.1.15,2013-02-15 16:50:00,
2013-02-15 09:55:00,48.8,24.3,30.24,NW,316,2.0,4.0,38,0.00,,,0.00,Wunderground v.1.15,2013-02-15 16:55:00,
2013-02-15 10:00:00,49.3,24.7,30.24,West,276,4.0,4.0,38,0.00,,,0.00,Wunderground v.1.15,2013-02-15 17:00:00,
2013-02-15 10:05:00,49.9,24.6,30.23,SSW,211,2.0,4.0,37,0.00,,,0.00,Wunderground v.1.15,2013-02-15 17:05:00,
2013-02-15 10:10:00,50.5,24.5,30.23,WSW,239,0.0,1.0,36,0.00,,,0.00,Wunderground v.1.15,2013-02-15 17:10:00,
2013-02-15 10:15:00,51.2,25.1,30.23,WNW,294,2.0,3.0,36,0.00,,,0.00,Wunderground v.1.15,2013-02-15 17:15:00,
2013-02-15 10:20:00,51.2,24.5,30.23,WSW,245,0.0,1.0,35,0.00,,,0.00,Wunderground v.1.15,2013-02-15 17:20:00,
2013-02-15 10:25:00,51.7,24.2,30.23,SW,215,0.0,3.0,34,0.00,,,0.00,Wunderground v.1.15,2013-02-15 17:25:00,
2013-02-15 10:30:00,52.2,23.9,30.23,WNW,290,0.0,0.0,33,0.00,,,0.00,Wunderground v.1.15,2013-02-15 17:30:00,
2013-02-15 10:35:00,52.5,24.2,30.23,WNW,300,0.0,0.0,33,0.00,,,0.00,Wunderground v.1.15,2013-02-15 17:35:00,
2013-02-15 10:40:00,53.2,23.3,30.23,SW,236,0.0,1.0,31,0.00,,,0.00,Wunderground v.1.15,2013-02-15 17:40:00,
2013-02-15 10:45:00,53.6,22.9,30.23,SW,233,1.0,3.0,30,0.00,,,0.00,Wunderground v.1.15,2013-02-15 17:45:00,
2013-02-15 10:50:00,53.7,23.0,30.23,SE,139,0.0,1.0,30,0.00,,,0.00,Wunderground v.1.15,2013-02-15 17:50:00,
2013-02-15 10:55:00,54.0,23.2,30.24,East,83,0.0,1.0,30,0.00,,,0.00,Wunderground v.1.15,2013-02-15 17:55:00,
2013-02-15 11:00:00,54.3,23.5,30.23,WNW,290,0.0,1.0,30,0.00,,,0.00,Wunderground v.1.15,2013-02-15 18:00:00,
2013-02-15 11:05:00,54.4,22.8,30.23,NW,319,4.0,5.0,29,0.00,,,0.00,Wunderground v.1.15,2013-02-15 18:05:00,
2013-02-15 11:10:00,54.5,22.9,30.23,WNW,290,3.0,3.0,29,0.00,,,0.00,Wunderground v.1.15,2013-02-15 18:10:00,
2013-02-15 11:15:00,54.7,22.2,30.23,NW,311,0.0,6.0,28,0.00,,,0.00,Wunderground v.1.15,2013-02-15 18:15:00,
2013-02-15 11:20:00,55.2,23.5,30.23,West,259,0.0,2.0,29,0.00,,,0.00,Wunderground v.1.15,2013-02-15 18:20:00,
2013-02-15 11:25:00,55.7,23.1,30.23,NW,311,4.0,5.0,28,0.00,,,0.00,Wunderground v.1.15,2013-02-15 18:25:00,
2013-02-15 11:30:00,55.6,23.0,30.23,NW,312,3.0,5.0,28,0.00,,,0.00,Wunderground v.1.15,2013-02-15 18:30:00,
2013-02-15 11:35:00,55.7,22.2,30.23,WSW,249,0.0,5.0,27,0.00,,,0.00,Wunderground v.1.15,2013-02-15 18:35:00,
2013-02-15 11:40:00,56.6,23.8,30.23,SE,127,0.0,1.0,28,0.00,,,0.00,Wunderground v.1.15,2013-02-15 18:40:00,
2013-02-15 11:45:00,56.9,23.2,30.23,West,278,2.0,6.0,27,0.00,,,0.00,Wunderground v.1.15,2013-02-15 18:45:00,
2013-02-15 11:50:00,56.2,23.5,30.23,WNW,288,1.0,4.0,28,0.00,,,0.00,Wunderground v.1.15,2013-02-15 18:50:00,
2013-02-15 11:55:00,56.1,23.4,30.23,West,271,1.0,7.0,28,0.00,,,0.00,Wunderground v.1.15,2013-02-15 18:55:00,
2013-02-15 12:00:00,56.6,23.0,30.23,WSW,248,5.0,5.0,27,0.00,,,0.00,Wunderground v.1.15,2013-02-15 19:00:00,
2013-02-15 12:05:00,56.8,21.3,30.23,NW,323,3.0,10.0,25,0.00,,,0.00,Wunderground v.1.15,2013-02-15 19:05:00,
2013-02-15 12:10:00,57.5,20.9,30.23,NNE,33,8.0,13.0,24,0.00,,,0.00,Wunderground v.1.15,2013-02-15 19:10:00,
2013-02-15 12:15:00,57.2,20.7,30.23,NNE,22,8.0,13.0,24,0.00,,,0.00,Wunderground v.1.15,2013-02-15 19:15:00,
2013-02-15 12:20:00,57.0,20.5,30.23,NE,52,8.0,11.0,24,0.00,,,0.00,Wunderground v.1.15,2013-02-15 19:20:00,
2013-02-15 12:25:00,56.9,20.4,30.22,NE,46,7.0,13.0,24,0.00,,,0.00,Wunderground v.1.15,2013-02-15 19:25:00,
2013-02-15 12:30:00,57.5,20.9,30.22,NE,41,8.0,10.0,24,0.00,,,0.00,Wunderground v.1.15,2013-02-15 19:30:00,
2013-02-15 12:35:00,58.1,19.4,30.23,North,352,7.0,10.0,22,0.00,,,0.00,Wunderground v.1.15,2013-02-15 19:35:00,
2013-02-15 12:40:00,57.5,18.9,30.23,NNE,18,4.0,6.0,22,0.00,,,0.00,Wunderground v.1.15,2013-02-15 19:40:00,
2013-02-15 12:45:00,57.6,19.0,30.22,NE,38,4.0,8.0,22,0.00,,,0.00,Wunderground v.1.15,2013-02-15 19:45:00,
2013-02-15 12:50:00,57.8,18.1,30.22,NE,46,5.0,6.0,21,0.00,,,0.00,Wunderground v.1.15,2013-02-15 19:50:00,
2013-02-15 12:55:00,58.2,18.4,30.22,North,11,7.0,10.0,21,0.00,,,0.00,Wunderground v.1.15,2013-02-15 19:55:00,
2013-02-15 13:00:00,57.7,18.0,30.21,ENE,68,1.0,4.0,21,0.00,,,0.00,Wunderground v.1.15,2013-02-15 20:00:00,
2013-02-15 13:05:00,58.4,18.6,30.20,NE,53,0.0,4.0,21,0.00,,,0.00,Wunderground v.1.15,2013-02-15 20:05:00,
2013-02-15 13:10:00,58.7,17.7,30.20,North,8,0.0,0.0,20,0.00,,,0.00,Wunderground v.1.15,2013-02-15 20:10:00,
2013-02-15 13:15:00,58.8,12.6,30.20,NNE,12,1.0,5.0,16,0.00,,,0.00,Wunderground v.1.15,2013-02-15 20:15:00,
2013-02-15 13:20:00,59.0,14.2,30.20,ENE,63,2.0,7.0,17,0.00,,,0.00,Wunderground v.1.15,2013-02-15 20:20:00,
2013-02-15 13:25:00,58.9,14.1,30.20,NNE,27,8.0,9.0,17,0.00,,,0.00,Wunderground v.1.15,2013-02-15 20:25:00,
2013-02-15 13:30:00,59.3,13.0,30.20,NE,56,4.0,4.0,16,0.00,,,0.00,Wunderground v.1.15,2013-02-15 20:30:00,
2013-02-15 13:35:00,59.8,10.4,30.19,NW,316,4.0,8.0,14,0.00,,,0.00,Wunderground v.1.15,2013-02-15 20:35:00,
2013-02-15 13:40:00,59.9,8.8,30.19,NNE,32,3.0,6.0,13,0.00,,,0.00,Wunderground v.1.15,2013-02-15 20:40:00,
2013-02-15 13:45:00,60.2,9.1,30.19,North,359,9.0,10.0,13,0.00,,,0.00,Wunderground v.1.15,2013-02-15 20:45:00,
2013-02-15 13:50:00,60.2,5.4,30.19,NNE,33,6.0,7.0,11,0.00,,,0.00,Wunderground v.1.15,2013-02-15 20:50:00,
2013-02-15 13:55:00,60.9,5.9,30.19,NNE,12,8.0,11.0,11,0.00,,,0.00,Wunderground v.1.15,2013-02-15 20:55:00,
2013-02-15 14:00:00,61.3,4.2,30.19,NNE,15,6.0,15.0,10,0.00,,,0.00,Wunderground v.1.15,2013-02-15 21:00:00,
2013-02-15 14:05:00,61.4,4.2,30.19,NE,51,6.0,15.0,10,0.00,,,0.00,Wunderground v.1.15,2013-02-15 21:05:00,
2013-02-15 14:10:00,61.6,8.4,30.19,NNW,347,5.0,9.0,12,0.00,,,0.00,Wunderground v.1.15,2013-02-15 21:10:00,
2013-02-15 14:15:00,61.4,10.0,30.19,NE,51,6.0,13.0,13,0.00,,,0.00,Wunderground v.1.15,2013-02-15 21:15:00,
2013-02-15 14:20:00,61.6,4.4,30.18,NE,41,10.0,11.0,10,0.00,,,0.00,Wunderground v.1.15,2013-02-15 21:20:00,
2013-02-15 14:25:00,61.8,6.6,30.19,North,356,8.0,13.0,11,0.00,,,0.00,Wunderground v.1.15,2013-02-15 21:25:00,
2013-02-15 14:30:00,61.6,6.5,30.18,NE,56,7.0,10.0,11,0.00,,,0.00,Wunderground v.1.15,2013-02-15 21:30:00,
2013-02-15 14:35:00,62.0,4.7,30.18,NNE,19,4.0,13.0,10,0.00,,,0.00,Wunderground v.1.15,2013-02-15 21:35:00,
2013-02-15 14:40:00,62.0,4.7,30.18,NE,48,10.0,13.0,10,0.00,,,0.00,Wunderground v.1.15,2013-02-15 21:40:00,
2013-02-15 14:45:00,61.8,4.5,30.18,ENE,67,9.0,14.0,10,0.00,,,0.00,Wunderground v.1.15,2013-02-15 21:45:00,
2013-02-15 14:50:00,61.9,4.6,30.18,North,4,5.0,8.0,10,0.00,,,0.00,Wunderground v.1.15,2013-02-15 21:50:00,
2013-02-15 14:55:00,62.4,5.0,30.18,NNW,328,11.0,14.0,10,0.00,,,0.00,Wunderground v.1.15,2013-02-15 21:55:00,
2013-02-15 15:00:00,62.2,4.9,30.18,NNE,19,6.0,8.0,10,0.00,,,0.00,Wunderground v.1.15,2013-02-15 22:00:00,
2013-02-15 15:05:00,62.4,5.0,30.18,North,357,10.0,10.0,10,0.00,,,0.00,Wunderground v.1.15,2013-02-15 22:05:00,
2013-02-15 15:10:00,62.2,7.0,30.18,NNE,29,11.0,11.0,11,0.00,,,0.00,Wunderground v.1.15,2013-02-15 22:10:00,
2013-02-15 15:15:00,62.1,6.9,30.18,NE,41,8.0,11.0,11,0.00,,,0.00,Wunderground v.1.15,2013-02-15 22:15:00,
2013-02-15 15:20:00,61.8,6.6,30.19,North,11,4.0,7.0,11,0.00,,,0.00,Wunderground v.1.15,2013-02-15 22:20:00,
2013-02-15 15:25:00,61.4,4.2,30.19,North,360,8.0,10.0,10,0.00,,,0.00,Wunderground v.1.15,2013-02-15 22:25:00,
2013-02-15 15:30:00,61.3,4.2,30.18,North,1,9.0,10.0,10,0.00,,,0.00,Wunderground v.1.15,2013-02-15 22:30:00,
2013-02-15 15:35:00,61.7,6.6,30.18,NNE,23,6.0,15.0,11,0.00,,,0.00,Wunderground v.1.15,2013-02-15 22:35:00,
2013-02-15 15:40:00,61.7,4.5,30.18,ENE,58,10.0,12.0,10,0.00,,,0.00,Wunderground v.1.15,2013-02-15 22:40:00,
2013-02-15 15:45:00,61.7,4.5,30.18,North,356,6.0,12.0,10,0.00,,,0.00,Wunderground v.1.15,2013-02-15 22:45:00,
2013-02-15 15:50:00,61.7,2.2,30.18,NE,39,7.0,9.0,9,0.00,,,0.00,Wunderground v.1.15,2013-02-15 22:50:00,
2013-02-15 15:55:00,61.9,2.3,30.18,NE,51,11.0,13.0,9,0.00,,,0.00,Wunderground v.1.15,2013-02-15 22:55:00,
2013-02-15 16:00:00,61.8,2.3,30.18,NNE,33,4.0,9.0,9,0.00,,,0.00,Wunderground v.1.15,2013-02-15 23:00:00,
2013-02-15 16:05:00,62.2,2.6,30.18,ENE,67,2.0,9.0,9,0.00,,,0.00,Wunderground v.1.15,2013-02-15 23:05:00,
2013-02-15 16:10:00,62.0,2.4,30.18,North,8,4.0,6.0,9,0.00,,,0.00,Wunderground v.1.15,2013-02-15 23:10:00,
2013-02-15 16:15:00,62.0,2.4,30.18,NNE,23,8.0,12.0,9,0.00,,,0.00,Wunderground v.1.15,2013-02-15 23:15:00,
2013-02-15 16:20:00,61.8,2.3,30.18,NNE,33,7.0,8.0,9,0.00,,,0.00,Wunderground v.1.15,2013-02-15 23:20:00,
2013-02-15 16:25:00,61.9,4.6,30.18,ENE,60,7.0,11.0,10,0.00,,,0.00,Wunderground v.1.15,2013-02-15 23:25:00,
2013-02-15 16:30:00,61.9,4.6,30.18,NE,39,7.0,10.0,10,0.00,,,0.00,Wunderground v.1.15,2013-02-15 23:30:00,
2013-02-15 16:35:00,62.0,4.7,30.18,NE,46,7.0,10.0,10,0.00,,,0.00,Wunderground v.1.15,2013-02-15 23:35:00,
2013-02-15 16:40:00,61.8,4.5,30.17,NNE,23,2.0,6.0,10,0.00,,,0.00,Wunderground v.1.15,2013-02-15 23:40:00,
2013-02-15 16:45:00,61.5,4.3,30.18,NNE,19,8.0,14.0,10,0.00,,,0.00,Wunderground v.1.15,2013-02-15 23:45:00,
2013-02-15 16:50:00,61.2,6.2,30.17,NE,52,4.0,8.0,11,0.00,,,0.00,Wunderground v.1.15,2013-02-15 23:50:00,
2013-02-15 16:55:00,61.3,6.3,30.18,NNE,20,9.0,9.0,11,0.00,,,0.00,Wunderground v.1.15,2013-02-15 23:55:00,
2013-02-15 17:00:00,61.2,6.2,30.18,ENE,62,4.0,5.0,11,0.00,,,0.00,Wunderground v.1.15,2013-02-16 00:00:00,
2013-02-15 17:05:00,61.2,6.2,30.18,ENE,60,4.0,5.0,11,0.00,,,0.00,Wunderground v.1.15,2013-02-16 00:05:00,
2013-02-15 17:10:00,60.8,3.8,30.18,NE,51,5.0,5.0,10,0.00,,,0.00,Wunderground v.1.15,2013-02-16 00:10:00,
2013-02-15 17:23:00,60.3,5.5,30.18,ENE,65,7.0,7.0,11,0.00,,,0.00,Wunderground v.1.15,2013-02-16 00:23:00,
2013-02-15 17:29:00,60.1,5.3,30.18,NE,43,5.0,10.0,11,0.00,,,0.00,Wunderground v.1.15,2013-02-16 00:29:00,
2013-02-15 17:34:00,59.9,5.2,30.18,NNE,30,1.0,4.0,11,0.00,,,0.00,Wunderground v.1.15,2013-02-16 00:34:00,
2013-02-15 17:39:00,59.7,5.0,30.18,NNW,330,3.0,7.0,11,0.00,,,0.00,Wunderground v.1.15,2013-02-16 00:39:00,
2013-02-15 17:44:00,59.3,4.7,30.18,NNE,25,4.0,4.0,11,0.00,,,0.00,Wunderground v.1.15,2013-02-16 00:44:00,
2013-02-15 17:49:00,58.9,2.3,30.18,NNE,19,4.0,8.0,10,0.00,,,0.00,Wunderground v.1.15,2013-02-16 00:49:00,
2013-02-15 17:54:00,58.4,4.0,30.18,NE,39,2.0,5.0,11,0.00,,,0.00,Wunderground v.1.15,2013-02-16 00:54:00,
2013-02-15 17:59:00,57.7,3.4,30.18,NE,48,2.0,5.0,11,0.00,,,0.00,Wunderground v.1.15,2013-02-16 00:59:00,
2013-02-15 18:04:00,56.8,4.6,30.18,North,11,1.0,4.0,12,0.00,,,0.00,Wunderground v.1.15,2013-02-16 01:04:00,
2013-02-15 18:09:00,55.9,3.9,30.18,NNE,13,3.0,4.0,12,0.00,,,0.00,Wunderground v.1.15,2013-02-16 01:09:00,
2013-02-15 18:14:00,55.4,3.5,30.18,NE,44,1.0,5.0,12,0.00,,,0.00,Wunderground v.1.15,2013-02-16 01:14:00,
2013-02-15 18:19:00,54.4,4.5,30.18,NE,44,0.0,5.0,13,0.00,,,0.00,Wunderground v.1.15,2013-02-16 01:19:00,
2013-02-15 18:24:00,53.5,3.8,30.18,NE,44,0.0,1.0,13,0.00,,,0.00,Wunderground v.1.15,2013-02-16 01:24:00,
2013-02-15 18:29:00,53.1,5.1,30.18,East,89,0.0,1.0,14,0.00,,,0.00,Wunderground v.1.15,2013-02-16 01:29:00,
2013-02-15 18:34:00,51.0,6.3,30.19,East,87,0.0,0.0,16,0.00,,,0.00,Wunderground v.1.15,2013-02-16 01:34:00,
2013-02-15 18:39:00,50.9,6.2,30.19,East,88,0.0,0.0,16,0.00,,,0.00,Wunderground v.1.15,2013-02-16 01:39:00,
2013-02-15 18:44:00,50.7,7.4,30.19,East,95,0.0,0.0,17,0.00,,,0.00,Wunderground v.1.15,2013-02-16 01:44:00,
2013-02-15 18:49:00,49.3,8.7,30.19,East,84,2.0,3.0,19,0.00,,,0.00,Wunderground v.1.15,2013-02-16 01:49:00,
2013-02-15 18:54:00,48.8,8.3,30.20,East,91,0.0,3.0,19,0.00,,,0.00,Wunderground v.1.15,2013-02-16 01:54:00,
2013-02-15 18:59:00,48.2,8.9,30.20,East,79,2.0,3.0,20,0.00,,,0.00,Wunderground v.1.15,2013-02-16 01:59:00,
2013-02-15 19:04:00,46.7,9.8,30.20,ENE,71,2.0,3.0,22,0.00,,,0.00,Wunderground v.1.15,2013-02-16 02:04:00,
2013-02-15 19:09:00,46.2,10.4,30.20,ENE,75,3.0,3.0,23,0.00,,,0.00,Wunderground v.1.15,2013-02-16 02:09:00,
2013-02-15 19:14:00,46.1,11.2,30.20,ENE,76,2.0,3.0,24,0.00,,,0.00,Wunderground v.1.15,2013-02-16 02:14:00,
2013-02-15 19:19:00,45.7,10.9,30.21,East,82,0.0,3.0,24,0.00,,,0.00,Wunderground v.1.15,2013-02-16 02:19:00,
2013-02-15 19:24:00,44.6,11.8,30.21,ENE,66,0.0,2.0,26,0.00,,,0.00,Wunderground v.1.15,2013-02-16 02:24:00,
2013-02-15 19:29:00,43.8,11.9,30.21,ENE,72,0.0,2.0,27,0.00,,,0.00,Wunderground v.1.15,2013-02-16 02:29:00,
2013-02-15 19:34:00,43.7,11.8,30.21,NE,49,2.0,3.0,27,0.00,,,0.00,Wunderground v.1.15,2013-02-16 02:34:00,
2013-02-15 19:39:00,43.1,11.3,30.21,ENE,68,4.0,4.0,27,0.00,,,0.00,Wunderground v.1.15,2013-02-16 02:39:00,
2013-02-15 19:44:00,42.9,11.2,30.22,NE,56,2.0,4.0,27,0.00,,,0.00,Wunderground v.1.15,2013-02-16 02:44:00,
2013-02-15 19:50:00,42.7,11.0,30.22,NE,53,4.0,4.0,27,0.00,,,0.00,Wunderground v.1.15,2013-02-16 02:50:00,
2013-02-15 19:55:00,43.4,10.7,30.22,ENE,58,2.0,5.0,26,0.00,,,0.00,Wunderground v.1.15,2013-02-16 02:55:00,
2013-02-15 20:00:00,43.3,10.7,30.22,ENE,66,2.0,3.0,26,0.00,,,0.00,Wunderground v.1.15,2013-02-16 03:00:00,
2013-02-15 20:05:00,42.2,12.2,30.23,ENE,64,3.0,4.0,29,0.00,,,0.00,Wunderground v.1.15,2013-02-16 03:05:00,
2013-02-15 20:10:00,41.1,12.0,30.23,ENE,64,4.0,4.0,30,0.00,,,0.00,Wunderground v.1.15,2013-02-16 03:10:00,
2013-02-15 20:15:00,40.8,12.5,30.23,ENE,63,3.0,4.0,31,0.00,,,0.00,Wunderground v.1.15,2013-02-16 03:15:00,
2013-02-15 20:20:00,41.0,11.9,30.23,ENE,63,1.0,2.0,30,0.00,,,0.00,Wunderground v.1.15,2013-02-16 03:20:00,
2013-02-15 20:25:00,41.0,11.9,30.23,ENE,63,3.0,3.0,30,0.00,,,0.00,Wunderground v.1.15,2013-02-16 03:25:00,
2013-02-15 20:30:00,40.7,12.4,30.23,ENE,63,3.0,3.0,31,0.00,,,0.00,Wunderground v.1.15,2013-02-16 03:30:00,
2013-02-15 20:35:00,40.3,12.7,30.24,ENE,63,1.0,3.0,32,0.00,,,0.00,Wunderground v.1.15,2013-02-16 03:35:00,
2013-02-15 20:40:00,39.6,13.5,30.24,ENE,68,3.0,4.0,34,0.00,,,0.00,Wunderground v.1.15,2013-02-16 03:40:00,
2013-02-15 20:45:00,39.2,13.8,30.24,ENE,64,4.0,5.0,35,0.00,,,0.00,Wunderground v.1.15,2013-02-16 03:45:00,
2013-02-15 20:50:00,38.4,13.7,30.24,ENE,68,3.0,3.0,36,0.00,,,0.00,Wunderground v.1.15,2013-02-16 03:50:00,
2013-02-15 20:55:00,38.4,13.7,30.24,ENE,63,2.0,3.0,36,0.00,,,0.00,Wunderground v.1.15,2013-02-16 03:55:00,
2013-02-15 21:00:00,38.3,14.3,30.24,ENE,63,2.0,3.0,37,0.00,,,0.00,Wunderground v.1.15,2013-02-16 04:00:00,
2013-02-15 21:05:00,38.1,13.5,30.24,ENE,64,3.0,3.0,36,0.00,,,0.00,Wunderground v.1.15,2013-02-16 04:05:00,
2013-02-15 21:10:00,38.4,13.1,30.25,ENE,71,2.0,3.0,35,0.00,,,0.00,Wunderground v.1.15,2013-02-16 04:10:00,
2013-02-15 21:15:00,38.5,13.8,30.25,ENE,67,3.0,4.0,36,0.00,,,0.00,Wunderground v.1.15,2013-02-16 04:15:00,
2013-02-15 21:20:00,38.4,13.7,30.25,ENE,68,2.0,3.0,36,0.00,,,0.00,Wunderground v.1.15,2013-02-16 04:20:00,
2013-02-15 21:25:00,38.4,13.7,30.25,ENE,68,2.0,3.0,36,0.00,,,0.00,Wunderground v.1.15,2013-02-16 04:25:00,
2013-02-15 21:30:00,38.3,13.6,30.25,ENE,63,2.0,2.0,36,0.00,,,0.00,Wunderground v.1.15,2013-02-16 04:30:00,
2013-02-15 21:35:00,38.2,14.2,30.26,ENE,63,2.0,4.0,37,0.00,,,0.00,Wunderground v.1.15,2013-02-16 04:35:00,
2013-02-15 21:40:00,38.6,13.9,30.26,ENE,68,1.0,2.0,36,0.00,,,0.00,Wunderground v.1.15,2013-02-16 04:40:00,
2013-02-15 21:45:00,38.8,14.1,30.26,ENE,64,3.0,5.0,36,0.00,,,0.00,Wunderground v.1.15,2013-02-16 04:45:00,
2013-02-15 21:50:00,40.1,13.9,30.26,ENE,63,2.0,3.0,34,0.00,,,0.00,Wunderground v.1.15,2013-02-16 04:50:00,
2013-02-15 21:55:00,40.5,13.6,30.26,ENE,70,2.0,3.0,33,0.00,,,0.00,Wunderground v.1.15,2013-02-16 04:55:00,
2013-02-15 22:00:00,39.8,14.3,30.26,NE,56,3.0,3.0,35,0.00,,,0.00,Wunderground v.1.15,2013-02-16 05:00:00,
2013-02-15 22:05:00,39.6,13.5,30.26,ENE,72,1.0,4.0,34,0.00,,,0.00,Wunderground v.1.15,2013-02-16 05:05:00,
2013-02-15 22:10:00,40.0,13.8,30.26,ENE,68,2.0,2.0,34,0.00,,,0.00,Wunderground v.1.15,2013-02-16 05:10:00,
2013-02-15 22:15:00,40.3,14.1,30.26,ENE,60,2.0,4.0,34,0.00,,,0.00,Wunderground v.1.15,2013-02-16 05:15:00,
2013-02-15 22:20:00,40.8,13.9,30.26,NE,41,4.0,4.0,33,0.00,,,0.00,Wunderground v.1.15,2013-02-16 05:20:00,
2013-02-15 22:23:00,41.2,13.5,30.26,NE,44,1.0,4.0,32,0.00,,,0.00,Wunderground v.1.15,2013-02-16 05:23:00,
2013-02-15 22:28:00,41.2,13.5,30.26,NE,44,4.0,4.0,32,0.00,,,0.00,Wunderground v.1.15,2013-02-16 05:28:00,
2013-02-15 22:33:00,41.1,13.4,30.26,NE,40,2.0,2.0,32,0.00,,,0.00,Wunderground v.1.15,2013-02-16 05:33:00,
2013-02-15 22:38:00,39.2,13.1,30.27,NE,43,1.0,3.0,34,0.00,,,0.00,Wunderground v.1.15,2013-02-16 05:38:00,
2013-02-15 22:43:00,38.4,13.7,30.27,NE,43,2.0,2.0,36,0.00,,,0.00,Wunderground v.1.15,2013-02-16 05:43:00,
2013-02-15 22:48:00,38.9,14.2,30.27,NE,54,3.0,4.0,36,0.00,,,0.00,Wunderground v.1.15,2013-02-16 05:48:00,
2013-02-15 22:53:00,38.6,13.9,30.26,NE,51,2.0,4.0,36,0.00,,,0.00,Wunderground v.1.15,2013-02-16 05:53:00,
2013-02-15 22:58:00,38.8,14.1,30.27,ENE,58,2.0,4.0,36,0.00,,,0.00,Wunderground v.1.15,2013-02-16 05:58:00,
2013-02-15 23:03:00,39.8,13.7,30.27,NE,56,3.0,3.0,34,0.00,,,0.00,Wunderground v.1.15,2013-02-16 06:03:00,
2013-02-15 23:08:00,40.1,13.9,30.28,ENE,66,3.0,4.0,34,0.00,,,0.00,Wunderground v.1.15,2013-02-16 06:08:00,
2013-02-15 23:13:00,41.6,14.6,30.27,East,84,5.0,6.0,33,0.00,,,0.00,Wunderground v.1.15,2013-02-16 06:13:00,
2013-02-15 23:18:00,44.6,14.3,30.28,ENE,73,2.0,6.0,29,0.00,,,0.00,Wunderground v.1.15,2013-02-16 06:18:00,
2013-02-15 23:24:00,44.0,13.7,30.28,NE,37,2.0,3.0,29,0.00,,,0.00,Wunderground v.1.15,2013-02-16 06:24:00,
2013-02-15 23:29:00,43.3,13.9,30.28,ENE,59,5.0,6.0,30,0.00,,,0.00,Wunderground v.1.15,2013-02-16 06:29:00,
2013-02-15 23:34:00,45.1,13.9,30.28,NE,45,3.0,5.0,28,0.00,,,0.00,Wunderground v.1.15,2013-02-16 06:34:00,
2013-02-15 23:39:00,44.9,13.7,30.28,NE,45,5.0,6.0,28,0.00,,,0.00,Wunderground v.1.15,2013-02-16 06:39:00,
2013-02-15 23:44:00,44.0,13.7,30.28,NE,45,4.0,4.0,29,0.00,,,0.00,Wunderground v.1.15,2013-02-16 06:44:00,
2013-02-15 23:49:00,44.1,13.8,30.29,ENE,72,3.0,6.0,29,0.00,,,0.00,Wunderground v.1.15,2013-02-16 06:49:00,
2013-02-15 23:54:00,44.3,13.2,30.28,NE,56,2.0,5.0,28,0.00,,,0.00,Wunderground v.1.15,2013-02-16 06:54:00,
2013-02-15 23:59:00,43.9,12.8,30.28,NE,53,2.0,5.0,28,0.00,,,0.00,Wunderground v.1.15,2013-02-16 06:59:00,